| time (UTC) | temp F | wind direction | speed MPH | gust MPH | rain 1hr in | rain 24hr in | rain mn in | humidity % | barometer mb |
| 20260903100814 | 75 | 277 | 14.0 | 19.0 | 0.00 | 0.00 | 0.00 | 31 | 1010.1 |
| 20260903100328 | 75 | 277 | 16.0 | 20.0 | 0.00 | 0.00 | 0.00 | 30 | 1010.1 |
| 20260903095816 | 76 | 260 | 13.0 | 23.0 | 0.00 | 0.00 | 0.00 | 30 | 1010.1 |
| 20260903095327 | 76 | 300 | 15.0 | 23.0 | 0.00 | 0.00 | 0.00 | 29 | 1010.2 |
| 20260903094819 | 76 | 252 | 15.0 | 22.0 | 0.00 | 0.00 | 0.00 | 30 | 1010.2 |
| 20260903094329 | 76 | 306 | 15.0 | 22.0 | 0.00 | 0.00 | 0.00 | 29 | 1010.4 |
| 20260903093822 | 76 | 278 | 11.0 | 16.0 | 0.00 | 0.00 | 0.00 | 28 | 1010.4 |
| 20260903093313 | 76 | 323 | 8.0 | 16.0 | 0.00 | 0.00 | 0.00 | 28 | 1010.5 |
| 20260903092827 | 76 | 281 | 10.0 | 16.0 | 0.00 | 0.00 | 0.00 | 28 | 1010.6 |
| 20260903092321 | 77 | 304 | 10.0 | 14.0 | 0.00 | 0.00 | 0.00 | 29 | 1010.6 |
| 20260903091814 | 77 | 293 | 10.0 | 20.0 | 0.00 | 0.00 | 0.00 | 29 | 1010.6 |
| 20260903091325 | 77 | 311 | 13.0 | 20.0 | 0.00 | 0.00 | 0.00 | 28 | 1010.6 |
| 20260903090818 | 77 | 284 | 14.0 | 19.0 | 0.00 | 0.00 | 0.00 | 28 | 1010.6 |
| 20260903090329 | 77 | 306 | 16.0 | 28.0 | 0.00 | 0.00 | 0.00 | 29 | 1010.6 |
| 20260903085818 | 77 | 298 | 19.0 | 29.0 | 0.00 | 0.00 | 0.00 | 30 | 1010.6 |
| 20260903085350 | 78 | 268 | 23.0 | 31.0 | 0.00 | 0.00 | 0.00 | 29 | 1010.5 |
| 20260903084822 | 77 | 301 | 22.0 | 31.0 | 0.00 | 0.00 | 0.00 | 30 | 1010.5 |
| 20260903084314 | 77 | 276 | 16.0 | 25.0 | 0.00 | 0.00 | 0.00 | 31 | 1010.5 |
| 20260903083830 | 77 | 279 | 20.0 | 32.0 | 0.00 | 0.00 | 0.00 | 32 | 1010.7 |
| 20260903083322 | 77 | 269 | 23.0 | 32.0 | 0.00 | 0.00 | 0.00 | 32 | 1010.6 |
| 20260903082814 | 76 | 288 | 17.0 | 25.0 | 0.00 | 0.00 | 0.00 | 33 | 1010.7 |
| 20260903082325 | 76 | 278 | 18.0 | 31.0 | 0.00 | 0.00 | 0.00 | 34 | 1010.7 |
| 20260903081838 | 76 | 277 | 23.0 | 31.0 | 0.00 | 0.00 | 0.00 | 34 | 1010.7 |
| 20260903081348 | 76 | 273 | 21.0 | 31.0 | 0.00 | 0.00 | 0.00 | 34 | 1010.7 |
| 20260903080820 | 76 | 262 | 20.0 | 31.0 | 0.00 | 0.00 | 0.00 | 35 | 1010.7 |
| 20260903080332 | 76 | 288 | 23.0 | 31.0 | 0.00 | 0.00 | 0.00 | 35 | 1010.7 |
| 20260903075822 | 76 | 264 | 24.0 | 32.0 | 0.00 | 0.00 | 0.00 | 35 | 1010.8 |
| 20260903075332 | 76 | 295 | 26.0 | 32.0 | 0.00 | 0.00 | 0.00 | 36 | 1010.8 |
| 20260903074828 | 76 | 282 | 23.0 | 33.0 | 0.00 | 0.00 | 0.00 | 36 | 1010.7 |
| 20260903074319 | 77 | 254 | 23.0 | 33.0 | 0.00 | 0.00 | 0.00 | 35 | 1010.7 |
| 20260903073832 | 77 | 266 | 23.0 | 29.0 | 0.00 | 0.00 | 0.00 | 36 | 1010.7 |
| 20260903073323 | 76 | 274 | 21.0 | 27.0 | 0.00 | 0.00 | 0.00 | 36 | 1010.7 |
| 20260903072835 | 76 | 277 | 20.0 | 26.0 | 0.00 | 0.00 | 0.00 | 36 | 1010.7 |
| 20260903072345 | 76 | 289 | 17.0 | 25.0 | 0.00 | 0.00 | 0.00 | 36 | 1010.7 |
| 20260903071817 | 76 | 257 | 17.0 | 24.0 | 0.00 | 0.00 | 0.00 | 36 | 1010.7 |
| 20260903071328 | 76 | 288 | 18.0 | 25.0 | 0.00 | 0.00 | 0.00 | 36 | 1010.7 |
| 20260903070821 | 77 | 262 | 20.0 | 27.0 | 0.00 | 0.00 | 0.00 | 35 | 1010.7 |
| 20260903070317 | 77 | 265 | 18.0 | 27.0 | 0.00 | 0.00 | 0.00 | 35 | 1010.7 |
| 20260903065847 | 76 | 271 | 20.0 | 27.0 | 0.00 | 0.00 | 0.00 | 35 | 1010.8 |
| 20260903065318 | 76 | 267 | 19.0 | 25.0 | 0.00 | 0.00 | 0.00 | 35 | 1010.8 |
| 20260903064831 | 76 | 271 | 17.0 | 25.0 | 0.00 | 0.00 | 0.00 | 35 | 1010.8 |
| 20260903064321 | 77 | 284 | 20.0 | 26.0 | 0.00 | 0.00 | 0.00 | 35 | 1010.8 |
| 20260903063813 | 77 | 269 | 19.0 | 27.0 | 0.00 | 0.00 | 0.00 | 34 | 1010.8 |
| 20260903063325 | 77 | 271 | 17.0 | 25.0 | 0.00 | 0.00 | 0.00 | 34 | 1010.7 |
| 20260903062818 | 77 | 252 | 16.0 | 25.0 | 0.00 | 0.00 | 0.00 | 35 | 1010.7 |
| 20260903062331 | 77 | 279 | 14.0 | 25.0 | 0.00 | 0.00 | 0.00 | 35 | 1010.9 |
| 20260903061828 | 76 | 271 | 17.0 | 24.0 | 0.00 | 0.00 | 0.00 | 35 | 1011.0 |
| 20260903061319 | 76 | 292 | 13.0 | 20.0 | 0.00 | 0.00 | 0.00 | 35 | 1011.0 |
| 20260903060830 | 76 | 298 | 15.0 | 21.0 | 0.00 | 0.00 | 0.00 | 35 | 1011.0 |
| 20260903060321 | 76 | 290 | 16.0 | 24.0 | 0.00 | 0.00 | 0.00 | 35 | 1011.0 |
| 20260903055830 | 76 | 269 | 15.0 | 25.0 | 0.00 | 0.00 | 0.00 | 34 | 1011.1 |
| 20260903055321 | 77 | 307 | 21.0 | 25.0 | 0.00 | 0.00 | 0.00 | 34 | 1011.1 |
| 20260903054814 | 77 | 279 | 18.0 | 25.0 | 0.00 | 0.00 | 0.00 | 34 | 1011.1 |
| 20260903054325 | 77 | 293 | 18.0 | 24.0 | 0.00 | 0.00 | 0.00 | 34 | 1011.1 |
| 20260903053822 | 77 | 282 | 18.0 | 26.0 | 0.00 | 0.00 | 0.00 | 33 | 1011.1 |
| 20260903053353 | 77 | 275 | 22.0 | 28.0 | 0.00 | 0.00 | 0.00 | 33 | 1011.1 |
| 20260903052823 | 78 | 281 | 21.0 | 29.0 | 0.00 | 0.00 | 0.00 | 33 | 1011.2 |
| 20260903052314 | 78 | 277 | 22.0 | 31.0 | 0.00 | 0.00 | 0.00 | 33 | 1011.2 |
| 20260903051827 | 78 | 279 | 25.0 | 31.0 | 0.00 | 0.00 | 0.00 | 33 | 1011.2 |
| 20260903051316 | 78 | 309 | 22.0 | 34.0 | 0.00 | 0.00 | 0.00 | 33 | 1011.2 |
| 20260903050829 | 78 | 288 | 24.0 | 34.0 | 0.00 | 0.00 | 0.00 | 33 | 1011.1 |
| 20260903050320 | 78 | 293 | 25.0 | 34.0 | 0.00 | 0.00 | 0.00 | 33 | 1011.0 |
| 20260903045830 | 79 | 281 | 22.0 | 33.0 | 0.00 | 0.00 | 0.00 | 32 | 1011.1 |
| 20260903045319 | 79 | 287 | 24.0 | 33.0 | 0.00 | 0.00 | 0.00 | 32 | 1011.1 |
| 20260903044815 | 79 | 290 | 25.0 | 32.0 | 0.00 | 0.00 | 0.00 | 32 | 1011.1 |
| 20260903044347 | 79 | 308 | 25.0 | 32.0 | 0.00 | 0.00 | 0.00 | 31 | 1011.0 |
| 20260903043818 | 79 | 294 | 23.0 | 31.0 | 0.00 | 0.00 | 0.00 | 32 | 1010.9 |
| 20260903043328 | 79 | 286 | 20.0 | 31.0 | 0.00 | 0.00 | 0.00 | 32 | 1011.0 |
| 20260903042820 | 79 | 276 | 19.0 | 30.0 | 0.00 | 0.00 | 0.00 | 32 | 1010.9 |
| 20260903042330 | 80 | 267 | 20.0 | 30.0 | 0.00 | 0.00 | 0.00 | 32 | 1010.9 |
| 20260903041822 | 80 | 284 | 18.0 | 28.0 | 0.00 | 0.00 | 0.00 | 31 | 1010.9 |
| 20260903041313 | 80 | 284 | 16.0 | 34.0 | 0.00 | 0.00 | 0.00 | 31 | 1011.0 |
| 20260903040824 | 80 | 288 | 16.0 | 34.0 | 0.00 | 0.00 | 0.00 | 31 | 1011.0 |
| 20260903040314 | 80 | 276 | 16.0 | 25.0 | 0.00 | 0.00 | 0.00 | 31 | 1011.0 |
| 20260903035827 | 81 | 281 | 15.0 | 25.0 | 0.00 | 0.00 | 0.00 | 30 | 1010.8 |
| 20260903035318 | 81 | 296 | 17.0 | 23.0 | 0.00 | 0.00 | 0.00 | 29 | 1010.7 |
| 20260903034831 | 81 | 306 | 17.0 | 24.0 | 0.00 | 0.00 | 0.00 | 28 | 1010.7 |
| 20260903034323 | 82 | 302 | 18.0 | 27.0 | 0.00 | 0.00 | 0.00 | 27 | 1010.7 |
| 20260903033835 | 82 | 311 | 19.0 | 27.0 | 0.00 | 0.00 | 0.00 | 26 | 1010.5 |
| 20260903033325 | 83 | 313 | 20.0 | 28.0 | 0.00 | 0.00 | 0.00 | 24 | 1010.5 |
| 20260903032818 | 83 | 317 | 17.0 | 28.0 | 0.00 | 0.00 | 0.00 | 23 | 1010.4 |
| 20260903032328 | 83 | 330 | 18.0 | 28.0 | 0.00 | 0.00 | 0.00 | 23 | 1010.4 |
| 20260903031820 | 83 | 329 | 20.0 | 26.0 | 0.00 | 0.00 | 0.00 | 21 | 1010.3 |
| 20260903031315 | 84 | 316 | 19.0 | 29.0 | 0.00 | 0.00 | 0.00 | 22 | 1010.1 |
| 20260903030847 | 84 | 311 | 21.0 | 26.0 | 0.00 | 0.00 | 0.00 | 21 | 1010.0 |
| 20260903030337 | 84 | 313 | 18.0 | 25.0 | 0.00 | 0.00 | 0.00 | 20 | 1010.0 |
| 20260903025825 | 85 | 301 | 20.0 | 26.0 | 0.00 | 0.00 | 0.00 | 19 | 1009.9 |
| 20260903025315 | 85 | 317 | 21.0 | 27.0 | 0.00 | 0.00 | 0.00 | 19 | 1009.9 |
| 20260903024828 | 85 | 306 | 20.0 | 27.0 | 0.00 | 0.00 | 0.00 | 20 | 1009.8 |
| 20260903024318 | 85 | 309 | 19.0 | 26.0 | 0.00 | 0.00 | 0.00 | 20 | 1009.8 |
| 20260903023831 | 86 | 319 | 17.0 | 26.0 | 0.00 | 0.00 | 0.00 | 20 | 1009.7 |
| 20260903023323 | 86 | 292 | 19.0 | 26.0 | 0.00 | 0.00 | 0.00 | 20 | 1009.6 |
| 20260903022816 | 86 | 281 | 19.0 | 26.0 | 0.00 | 0.00 | 0.00 | 19 | 1009.6 |
| 20260903022331 | 87 | 284 | 16.0 | 23.0 | 0.00 | 0.00 | 0.00 | 18 | 1009.5 |
| 20260903021823 | 87 | 286 | 18.0 | 25.0 | 0.00 | 0.00 | 0.00 | 18 | 1009.5 |
| 20260903021332 | 87 | 277 | 18.0 | 26.0 | 0.00 | 0.00 | 0.00 | 18 | 1009.6 |
| 20260903020824 | 88 | 303 | 19.0 | 26.0 | 0.00 | 0.00 | 0.00 | 17 | 1009.6 |
| 20260903020315 | 88 | 272 | 16.0 | 25.0 | 0.00 | 0.00 | 0.00 | 17 | 1009.6 |
| 20260903015825 | 89 | 295 | 16.0 | 22.0 | 0.00 | 0.00 | 0.00 | 17 | 1009.6 |
| 20260903015316 | 89 | 299 | 17.0 | 22.0 | 0.00 | 0.00 | 0.00 | 17 | 1009.5 |
| 20260903014828 | 89 | 288 | 18.0 | 28.0 | 0.00 | 0.00 | 0.00 | 16 | 1009.6 |
| 20260903014340 | 90 | 290 | 19.0 | 28.0 | 0.00 | 0.00 | 0.00 | 16 | 1009.6 |
| 20260903013816 | 90 | 302 | 16.0 | 22.0 | 0.00 | 0.00 | 0.00 | 16 | 1009.6 |
| 20260903013327 | 91 | 277 | 17.0 | 22.0 | 0.00 | 0.00 | 0.00 | 15 | 1009.6 |
| 20260903012840 | 91 | 314 | 17.0 | 24.0 | 0.00 | 0.00 | 0.00 | 15 | 1009.6 |
| 20260903012329 | 91 | 309 | 15.0 | 23.0 | 0.00 | 0.00 | 0.00 | 14 | 1009.6 |
| 20260903011842 | 92 | 270 | 16.0 | 24.0 | 0.00 | 0.00 | 0.00 | 14 | 1009.6 |
| 20260903011331 | 92 | 277 | 17.0 | 25.0 | 0.00 | 0.00 | 0.00 | 14 | 1009.5 |
| 20260903010823 | 92 | 282 | 16.0 | 25.0 | 0.00 | 0.00 | 0.00 | 14 | 1009.4 |
| 20260903010314 | 92 | 279 | 16.0 | 22.0 | 0.00 | 0.00 | 0.00 | 13 | 1009.4 |
| 20260903005823 | 92 | 300 | 18.0 | 24.0 | 0.00 | 0.00 | 0.00 | 13 | 1009.4 |
| 20260903005314 | 93 | 270 | 19.0 | 24.0 | 0.00 | 0.00 | 0.00 | 11 | 1009.4 |
| 20260903004826 | 93 | 275 | 17.0 | 27.0 | 0.00 | 0.00 | 0.00 | 11 | 1009.4 |
| 20260903004319 | 93 | 279 | 21.0 | 27.0 | 0.00 | 0.00 | 0.00 | 12 | 1009.3 |
| 20260903003831 | 93 | 261 | 19.0 | 25.0 | 0.00 | 0.00 | 0.00 | 11 | 1009.4 |
| 20260903003322 | 94 | 271 | 20.0 | 28.0 | 0.00 | 0.00 | 0.00 | 11 | 1009.3 |
| 20260903002835 | 94 | 262 | 22.0 | 28.0 | 0.00 | 0.00 | 0.00 | 12 | 1009.3 |
| 20260903002325 | 94 | 278 | 19.0 | 27.0 | 0.00 | 0.00 | 0.00 | 11 | 1009.3 |
| 20260903001815 | 95 | 253 | 17.0 | 24.0 | 0.00 | 0.00 | 0.00 | 10 | 1009.3 |
| 20260903001327 | 95 | 266 | 17.0 | 26.0 | 0.00 | 0.00 | 0.00 | 9 | 1009.4 |
| 20260903000840 | 95 | 257 | 15.0 | 21.0 | 0.00 | 0.00 | 0.00 | 9 | 1009.4 |
| 20260903000349 | 95 | 243 | 15.0 | 24.0 | 0.00 | 0.00 | 0.00 | 9 | 1009.5 |
| 20260902235818 | 95 | 281 | 17.0 | 23.0 | 0.00 | 0.00 | 0.00 | 9 | 1009.6 |
| 20260902235330 | 95 | 253 | 19.0 | 23.0 | 0.00 | 0.00 | 0.00 | 9 | 1009.6 |
| 20260902234827 | 95 | 247 | 17.0 | 23.0 | 0.00 | 0.00 | 0.00 | 9 | 1009.6 |
| 20260902234317 | 95 | 277 | 11.0 | 28.0 | 0.00 | 0.00 | 0.00 | 9 | 1009.6 |
| 20260902233850 | 96 | 256 | 22.0 | 28.0 | 0.00 | 0.00 | 0.00 | 8 | 1009.6 |
| 20260902233320 | 95 | 275 | 13.0 | 27.0 | 0.00 | 0.00 | 0.00 | 8 | 1009.7 |
| 20260902232853 | 96 | 291 | 14.0 | 23.0 | 0.00 | 0.00 | 0.00 | 7 | 1009.8 |
| 20260902232324 | 96 | 246 | 16.0 | 25.0 | 0.00 | 0.00 | 0.00 | 7 | 1009.8 |
| 20260902231816 | 96 | 241 | 19.0 | 27.0 | 0.00 | 0.00 | 0.00 | 7 | 1009.9 |
| 20260902231327 | 96 | 306 | 19.0 | 29.0 | 0.00 | 0.00 | 0.00 | 8 | 1009.8 |
| 20260902230820 | 96 | 260 | 21.0 | 31.0 | 0.00 | 0.00 | 0.00 | 7 | 1009.8 |
| 20260902230316 | 96 | 250 | 19.0 | 32.0 | 0.00 | 0.00 | 0.00 | 7 | 1009.8 |
| 20260902225826 | 96 | 249 | 17.0 | 25.0 | 0.00 | 0.00 | 0.00 | 7 | 1009.8 |
| 20260902225318 | 96 | 286 | 17.0 | 26.0 | 0.00 | 0.00 | 0.00 | 6 | 1009.9 |
| 20260902224852 | 97 | 273 | 18.0 | 25.0 | 0.00 | 0.00 | 0.00 | 6 | 1010.0 |
| 20260902224341 | 97 | 281 | 14.0 | 23.0 | 0.00 | 0.00 | 0.00 | 7 | 1010.0 |
| 20260902223832 | 96 | 256 | 17.0 | 23.0 | 0.00 | 0.00 | 0.00 | 7 | 1010.0 |
| 20260902223322 | 96 | 226 | 11.0 | 19.0 | 0.00 | 0.00 | 0.00 | 8 | 1010.1 |
| 20260902222816 | 97 | 244 | 13.0 | 30.0 | 0.00 | 0.00 | 0.00 | 7 | 1010.1 |
| 20260902222327 | 97 | 261 | 14.0 | 30.0 | 0.00 | 0.00 | 0.00 | 8 | 1010.2 |
| 20260902221820 | 97 | 277 | 13.0 | 24.0 | 0.00 | 0.00 | 0.00 | 8 | 1010.3 |
| 20260902221315 | 97 | 265 | 15.0 | 25.0 | 0.00 | 0.00 | 0.00 | 8 | 1010.4 |
| 20260902220826 | 96 | 311 | 11.0 | 25.0 | 0.00 | 0.00 | 0.00 | 8 | 1010.4 |
| 20260902220316 | 97 | 268 | 14.0 | 20.0 | 0.00 | 0.00 | 0.00 | 7 | 1010.5 |
| 20260902215825 | 97 | 259 | 11.0 | 25.0 | 0.00 | 0.00 | 0.00 | 7 | 1010.6 |
| 20260902215316 | 97 | 203 | 13.0 | 25.0 | 0.00 | 0.00 | 0.00 | 7 | 1010.7 |
| 20260902214828 | 97 | 321 | 8.0 | 19.0 | 0.00 | 0.00 | 0.00 | 7 | 1010.6 |
| 20260902214319 | 97 | 258 | 11.0 | 19.0 | 0.00 | 0.00 | 0.00 | 7 | 1010.8 |
| 20260902213852 | 97 | 242 | 13.0 | 19.0 | 0.00 | 0.00 | 0.00 | 7 | 1010.8 |
| 20260902213322 | 96 | 295 | 13.0 | 23.0 | 0.00 | 0.00 | 0.00 | 7 | 1010.8 |
| 20260902212816 | 96 | 259 | 15.0 | 21.0 | 0.00 | 0.00 | 0.00 | 7 | 1010.8 |
| 20260902212328 | 96 | 231 | 3.0 | 14.0 | 0.00 | 0.00 | 0.00 | 7 | 1010.8 |
| 20260902211824 | 96 | 288 | 9.0 | 14.0 | 0.00 | 0.00 | 0.00 | 7 | 1010.9 |
| 20260902211315 | 96 | 264 | 7.0 | 11.0 | 0.00 | 0.00 | 0.00 | 7 | 1010.9 |
| 20260902210828 | 96 | 229 | 7.0 | 14.0 | 0.00 | 0.00 | 0.00 | 7 | 1011.0 |
| 20260902210319 | 96 | 221 | 9.0 | 14.0 | 0.00 | 0.00 | 0.00 | 7 | 1011.0 |
| 20260902205829 | 97 | 250 | 8.0 | 12.0 | 0.00 | 0.00 | 0.00 | 7 | 1011.1 |
| 20260902205319 | 96 | 224 | 2.0 | 10.0 | 0.00 | 0.00 | 0.00 | 7 | 1011.1 |
| 20260902204831 | 95 | 307 | 5.0 | 10.0 | 0.00 | 0.00 | 0.00 | 7 | 1011.4 |
| 20260902204322 | 95 | 189 | 2.0 | 11.0 | 0.00 | 0.00 | 0.00 | 7 | 1011.4 |
| 20260902203820 | 95 | 315 | 5.0 | 13.0 | 0.00 | 0.00 | 0.00 | 7 | 1011.4 |
| 20260902203312 | 95 | 231 | 7.0 | 13.0 | 0.00 | 0.00 | 0.00 | 6 | 1011.5 |
| 20260902202826 | 96 | 298 | 2.0 | 10.0 | 0.00 | 0.00 | 0.00 | 7 | 1011.5 |
| 20260902202317 | 95 | 213 | 5.0 | 12.0 | 0.00 | 0.00 | 0.00 | 7 | 1011.7 |
| 20260902201831 | 95 | 344 | 8.0 | 15.0 | 0.00 | 0.00 | 0.00 | 7 | 1011.7 |
| 20260902201323 | 95 | 5 | 7.0 | 11.0 | 0.00 | 0.00 | 0.00 | 7 | 1011.7 |
| 20260902200837 | 95 | 328 | 6.0 | 14.0 | 0.00 | 0.00 | 0.00 | 7 | 1011.8 |
| 20260902200348 | 95 | 257 | 9.0 | 16.0 | 0.00 | 0.00 | 0.00 | 7 | 1011.9 |
| 20260902195817 | 95 | 313 | 9.0 | 19.0 | 0.00 | 0.00 | 0.00 | 7 | 1011.9 |
| 20260902195349 | 95 | 284 | 13.0 | 19.0 | 0.00 | 0.00 | 0.00 | 7 | 1011.9 |
| 20260902194824 | 94 | 259 | 7.0 | 14.0 | 0.00 | 0.00 | 0.00 | 8 | 1011.9 |
| 20260902194315 | 94 | 241 | 6.0 | 14.0 | 0.00 | 0.00 | 0.00 | 8 | 1012.1 |
| 20260902193829 | 94 | 170 | 2.0 | 7.0 | 0.00 | 0.00 | 0.00 | 8 | 1012.1 |
| 20260902193321 | 94 | 213 | 2.0 | 9.0 | 0.00 | 0.00 | 0.00 | 8 | 1012.1 |
| 20260902192814 | 93 | 275 | 6.0 | 12.0 | 0.00 | 0.00 | 0.00 | 8 | 1012.2 |
| 20260902192326 | 93 | 306 | 7.0 | 14.0 | 0.00 | 0.00 | 0.00 | 8 | 1012.2 |
| 20260902191817 | 94 | 236 | 9.0 | 12.0 | 0.00 | 0.00 | 0.00 | 8 | 1012.2 |
| 20260902191329 | 94 | 263 | 3.0 | 10.0 | 0.00 | 0.00 | 0.00 | 8 | 1012.2 |
| 20260902190825 | 93 | 265 | 5.0 | 10.0 | 0.00 | 0.00 | 0.00 | 8 | 1012.3 |
| 20260902190314 | 93 | 170 | 1.0 | 12.0 | 0.00 | 0.00 | 0.00 | 8 | 1012.3 |
| 20260902185824 | 93 | 281 | 6.0 | 12.0 | 0.00 | 0.00 | 0.00 | 8 | 1012.3 |
| 20260902185315 | 93 | 212 | 6.0 | 9.0 | 0.00 | 0.00 | 0.00 | 8 | 1012.3 |
| 20260902184828 | 93 | 219 | 5.0 | 9.0 | 0.00 | 0.00 | 0.00 | 8 | 1012.5 |
| 20260902184319 | 92 | 290 | 7.0 | 11.0 | 0.00 | 0.00 | 0.00 | 8 | 1012.5 |
| 20260902183813 | 92 | 248 | 7.0 | 11.0 | 0.00 | 0.00 | 0.00 | 7 | 1012.6 |
| 20260902183322 | 92 | 293 | 5.0 | 10.0 | 0.00 | 0.00 | 0.00 | 8 | 1012.6 |
| 20260902182835 | 92 | 278 | 4.0 | 13.0 | 0.00 | 0.00 | 0.00 | 8 | 1012.7 |
| 20260902182326 | 92 | 268 | 8.0 | 13.0 | 0.00 | 0.00 | 0.00 | 8 | 1012.7 |
| 20260902181823 | 92 | 323 | 9.0 | 14.0 | 0.00 | 0.00 | 0.00 | 8 | 1012.7 |
| 20260902181313 | 92 | 308 | 9.0 | 15.0 | 0.00 | 0.00 | 0.00 | 8 | 1012.8 |
| 20260902180826 | 91 | 242 | 12.0 | 15.0 | 0.00 | 0.00 | 0.00 | 8 | 1012.8 |
| 20260902180318 | 91 | 242 | 5.0 | 16.0 | 0.00 | 0.00 | 0.00 | 10 | 1012.8 |
| 20260902175827 | 91 | 234 | 13.0 | 16.0 | 0.00 | 0.00 | 0.00 | 9 | 1012.9 |
| 20260902175317 | 90 | 226 | 7.0 | 14.0 | 0.00 | 0.00 | 0.00 | 10 | 1012.9 |
| 20260902174829 | 90 | 220 | 9.0 | 14.0 | 0.00 | 0.00 | 0.00 | 10 | 1012.9 |
| 20260902174320 | 90 | 259 | 7.0 | 12.0 | 0.00 | 0.00 | 0.00 | 10 | 1012.8 |
| 20260902173833 | 89 | 220 | 6.0 | 14.0 | 0.00 | 0.00 | 0.00 | 10 | 1012.9 |
| 20260902173327 | 90 | 258 | 10.0 | 14.0 | 0.00 | 0.00 | 0.00 | 11 | 1012.9 |
| 20260902172819 | 89 | 243 | 10.0 | 15.0 | 0.00 | 0.00 | 0.00 | 11 | 1012.9 |
| 20260902172330 | 89 | 229 | 10.0 | 16.0 | 0.00 | 0.00 | 0.00 | 11 | 1012.9 |
| 20260902171843 | 89 | 287 | 11.0 | 15.0 | 0.00 | 0.00 | 0.00 | 10 | 1012.8 |
| 20260902171353 | 89 | 273 | 10.0 | 16.0 | 0.00 | 0.00 | 0.00 | 10 | 1012.8 |
| 20260902170824 | 89 | 261 | 12.0 | 16.0 | 0.00 | 0.00 | 0.00 | 10 | 1012.8 |
| 20260902170315 | 89 | 315 | 11.0 | 18.0 | 0.00 | 0.00 | 0.00 | 10 | 1012.8 |
| 20260902165824 | 89 | 305 | 14.0 | 18.0 | 0.00 | 0.00 | 0.00 | 10 | 1012.8 |
| 20260902165316 | 89 | 300 | 13.0 | 19.0 | 0.00 | 0.00 | 0.00 | 10 | 1012.7 |
| 20260902164814 | 89 | 297 | 15.0 | 19.0 | 0.00 | 0.00 | 0.00 | 10 | 1012.7 |
| 20260902164324 | 88 | 306 | 13.0 | 18.0 | 0.00 | 0.00 | 0.00 | 10 | 1012.6 |
| 20260902163817 | 88 | 263 | 14.0 | 19.0 | 0.00 | 0.00 | 0.00 | 10 | 1012.6 |
| 20260902163348 | 88 | 300 | 15.0 | 19.0 | 0.00 | 0.00 | 0.00 | 10 | 1012.5 |
| 20260902162819 | 88 | 282 | 15.0 | 19.0 | 0.00 | 0.00 | 0.00 | 10 | 1012.5 |
| 20260902162330 | 88 | 283 | 13.0 | 21.0 | 0.00 | 0.00 | 0.00 | 10 | 1012.5 |
| 20260902161823 | 87 | 267 | 15.0 | 21.0 | 0.00 | 0.00 | 0.00 | 10 | 1012.4 |
| 20260902161313 | 87 | 294 | 12.0 | 23.0 | 0.00 | 0.00 | 0.00 | 10 | 1012.5 |
| 20260902160826 | 87 | 290 | 15.0 | 23.0 | 0.00 | 0.00 | 0.00 | 10 | 1012.5 |
| 20260902160318 | 87 | 305 | 11.0 | 17.0 | 0.00 | 0.00 | 0.00 | 10 | 1012.4 |
| 20260902155832 | 86 | 277 | 12.0 | 17.0 | 0.00 | 0.00 | 0.00 | 10 | 1012.5 |
| 20260902155323 | 86 | 279 | 11.0 | 16.0 | 0.00 | 0.00 | 0.00 | 10 | 1012.5 |
| 20260902154818 | 86 | 263 | 11.0 | 15.0 | 0.00 | 0.00 | 0.00 | 10 | 1012.4 |
| 20260902154350 | 85 | 305 | 11.0 | 15.0 | 0.00 | 0.00 | 0.00 | 11 | 1012.4 |
| 20260902153823 | 84 | 273 | 10.0 | 12.0 | 0.00 | 0.00 | 0.00 | 12 | 1012.4 |
| 20260902153315 | 84 | 284 | 10.0 | 13.0 | 0.00 | 0.00 | 0.00 | 12 | 1012.5 |
| 20260902152828 | 83 | 304 | 10.0 | 13.0 | 0.00 | 0.00 | 0.00 | 12 | 1012.5 |
| 20260902152319 | 83 | 284 | 9.0 | 12.0 | 0.00 | 0.00 | 0.00 | 13 | 1012.4 |
| 20260902151816 | 82 | 309 | 9.0 | 11.0 | 0.00 | 0.00 | 0.00 | 13 | 1012.3 |
| 20260902151328 | 82 | 311 | 8.0 | 11.0 | 0.00 | 0.00 | 0.00 | 14 | 1012.3 |
| 20260902150821 | 81 | 302 | 8.0 | 11.0 | 0.00 | 0.00 | 0.00 | 14 | 1012.4 |
| 20260902150353 | 81 | 272 | 8.0 | 12.0 | 0.00 | 0.00 | 0.00 | 14 | 1012.4 |
| 20260902145822 | 81 | 284 | 10.0 | 12.0 | 0.00 | 0.00 | 0.00 | 14 | 1012.5 |
| 20260902145313 | 81 | 275 | 10.0 | 12.0 | 0.00 | 0.00 | 0.00 | 14 | 1012.5 |
| 20260902144825 | 80 | 294 | 9.0 | 12.0 | 0.00 | 0.00 | 0.00 | 14 | 1012.5 |
| 20260902144315 | 80 | 292 | 7.0 | 10.0 | 0.00 | 0.00 | 0.00 | 15 | 1012.5 |
| 20260902143827 | 79 | 311 | 6.0 | 12.0 | 0.00 | 0.00 | 0.00 | 15 | 1012.5 |
| 20260902143323 | 78 | 301 | 8.0 | 12.0 | 0.00 | 0.00 | 0.00 | 15 | 1012.4 |
| 20260902142815 | 77 | 308 | 7.0 | 12.0 | 0.00 | 0.00 | 0.00 | 17 | 1012.4 |
| 20260902142326 | 77 | 300 | 10.0 | 12.0 | 0.00 | 0.00 | 0.00 | 18 | 1012.4 |
| 20260902141819 | 76 | 319 | 7.0 | 13.0 | 0.00 | 0.00 | 0.00 | 18 | 1012.3 |
| 20260902141350 | 75 | 314 | 9.0 | 12.0 | 0.00 | 0.00 | 0.00 | 19 | 1012.3 |
| 20260902140820 | 75 | 308 | 9.0 | 12.0 | 0.00 | 0.00 | 0.00 | 20 | 1012.4 |
| 20260902140331 | 74 | 294 | 9.0 | 11.0 | 0.00 | 0.00 | 0.00 | 20 | 1012.4 |
| 20260902135820 | 74 | 320 | 9.0 | 12.0 | 0.00 | 0.00 | 0.00 | 20 | 1012.3 |
| 20260902135330 | 74 | 311 | 9.0 | 13.0 | 0.00 | 0.00 | 0.00 | 21 | 1012.3 |
| 20260902134822 | 73 | 309 | 10.0 | 12.0 | 0.00 | 0.00 | 0.00 | 21 | 1012.3 |
| 20260902134324 | 73 | 305 | 10.0 | 11.0 | 0.00 | 0.00 | 0.00 | 21 | 1012.4 |
| 20260902133820 | 73 | 308 | 10.0 | 11.0 | 0.00 | 0.00 | 0.00 | 20 | 1012.4 |
| 20260902133331 | 73 | 308 | 9.0 | 10.0 | 0.00 | 0.00 | 0.00 | 20 | 1012.5 |
| 20260902132824 | 73 | 301 | 8.0 | 10.0 | 0.00 | 0.00 | 0.00 | 19 | 1012.5 |
| 20260902132315 | 74 | 316 | 9.0 | 10.0 | 0.00 | 0.00 | 0.00 | 19 | 1012.5 |
| 20260902131828 | 74 | 316 | 7.0 | 10.0 | 0.00 | 0.00 | 0.00 | 19 | 1012.4 |
| 20260902131319 | 75 | 299 | 8.0 | 12.0 | 0.00 | 0.00 | 0.00 | 19 | 1012.2 |
| 20260902130832 | 75 | 299 | 10.0 | 13.0 | 0.00 | 0.00 | 0.00 | 19 | 1012.2 |
| 20260902130324 | 75 | 304 | 10.0 | 14.0 | 0.00 | 0.00 | 0.00 | 18 | 1012.2 |
| 20260902125832 | 76 | 314 | 11.0 | 15.0 | 0.00 | 0.00 | 0.00 | 18 | 1012.1 |
| 20260902125327 | 76 | 301 | 12.0 | 16.0 | 0.00 | 0.00 | 0.00 | 18 | 1012.1 |
| 20260902124819 | 77 | 283 | 12.0 | 16.0 | 0.00 | 0.00 | 0.00 | 17 | 1012.1 |
| 20260902124331 | 77 | 290 | 13.0 | 16.0 | 0.00 | 0.00 | 0.00 | 17 | 1012.1 |
| 20260902123824 | 77 | 277 | 12.0 | 18.0 | 0.00 | 0.00 | 0.00 | 16 | 1012.1 |
| 20260902123315 | 78 | 301 | 14.0 | 22.0 | 0.00 | 0.00 | 0.00 | 16 | 1012.1 |
| 20260902122829 | 78 | 296 | 15.0 | 19.0 | 0.00 | 0.00 | 0.00 | 16 | 1012.1 |
| 20260902122321 | 78 | 273 | 14.0 | 21.0 | 0.00 | 0.00 | 0.00 | 16 | 1012.1 |
| 20260902121853 | 78 | 292 | 16.0 | 25.0 | 0.00 | 0.00 | 0.00 | 16 | 1012.0 |
| 20260902121322 | 78 | 275 | 17.0 | 25.0 | 0.00 | 0.00 | 0.00 | 16 | 1011.9 |
| 20260902120818 | 78 | 291 | 18.0 | 25.0 | 0.00 | 0.00 | 0.00 | 16 | 1012.0 |
| 20260902120329 | 78 | 276 | 16.0 | 23.0 | 0.00 | 0.00 | 0.00 | 17 | 1012.1 |
| 20260902115819 | 78 | 280 | 17.0 | 24.0 | 0.00 | 0.00 | 0.00 | 16 | 1012.1 |
| 20260902115330 | 78 | 268 | 15.0 | 25.0 | 0.00 | 0.00 | 0.00 | 17 | 1012.1 |
| 20260902114842 | 77 | 280 | 18.0 | 25.0 | 0.00 | 0.00 | 0.00 | 17 | 1012.1 |
| 20260902114332 | 77 | 302 | 16.0 | 22.0 | 0.00 | 0.00 | 0.00 | 18 | 1012.0 |
| 20260902113824 | 77 | 296 | 14.0 | 22.0 | 0.00 | 0.00 | 0.00 | 18 | 1012.0 |
| 20260902113334 | 77 | 298 | 17.0 | 24.0 | 0.00 | 0.00 | 0.00 | 18 | 1012.0 |
| 20260902112825 | 77 | 284 | 16.0 | 24.0 | 0.00 | 0.00 | 0.00 | 19 | 1012.1 |
| 20260902112316 | 77 | 284 | 14.0 | 19.0 | 0.00 | 0.00 | 0.00 | 19 | 1012.0 |
| 20260902111813 | 77 | 309 | 13.0 | 23.0 | 0.00 | 0.00 | 0.00 | 19 | 1012.1 |
| 20260902111324 | 77 | 300 | 16.0 | 23.0 | 0.00 | 0.00 | 0.00 | 19 | 1012.0 |
| 20260902110817 | 77 | 282 | 14.0 | 18.0 | 0.00 | 0.00 | 0.00 | 20 | 1012.0 |
| 20260902110329 | 76 | 302 | 15.0 | 18.0 | 0.00 | 0.00 | 0.00 | 22 | 1012.0 |
| 20260902105839 | 76 | 296 | 14.0 | 18.0 | 0.00 | 0.00 | 0.00 | 22 | 1012.0 |
| 20260902105329 | 75 | 309 | 12.0 | 18.0 | 0.00 | 0.00 | 0.00 | 23 | 1012.0 |
| 20260902104822 | 75 | 290 | 11.0 | 13.0 | 0.00 | 0.00 | 0.00 | 24 | 1012.1 |
| 20260902104333 | 75 | 290 | 10.0 | 13.0 | 0.00 | 0.00 | 0.00 | 26 | 1012.1 |
| 20260902103845 | 75 | 295 | 10.0 | 17.0 | 0.00 | 0.00 | 0.00 | 25 | 1012.1 |
| 20260902103315 | 75 | 282 | 11.0 | 17.0 | 0.00 | 0.00 | 0.00 | 26 | 1012.1 |
| 20260902102826 | 75 | 283 | 10.0 | 14.0 | 0.00 | 0.00 | 0.00 | 26 | 1012.1 |
| 20260902102321 | 75 | 279 | 10.0 | 15.0 | 0.00 | 0.00 | 0.00 | 26 | 1012.1 |
| 20260902101814 | 76 | 306 | 11.0 | 15.0 | 0.00 | 0.00 | 0.00 | 25 | 1012.2 |
| 20260902101344 | 76 | 299 | 12.0 | 18.0 | 0.00 | 0.00 | 0.00 | 25 | 1012.1 |